WB0YAF-8 Weather Reports


time (UTC)temp
F
wind
direction
speed
knots
gust
knots
rain 1hr
in
rain 24hr
in
rain mn
in
humidity
%
barometer
mb
20260505140254 41 135 0.0 0.0 0.00 0.00 0.00 64 1014.8
20260505130254 41 113 0.0 5.2 0.00 0.00 0.00 64 1013.8
20260505124755 42 113 1.7 5.2 0.00 0.00 0.00 63 1013.8
20260505124254 42 135 0.9 4.3 0.00 0.00 0.00 62 1013.8
20260505123755 42 135 0.0 4.3 0.00 0.00 0.00 61 1013.8
20260505123255 42 135 0.0 2.6 0.00 0.00 0.00 60 1013.8
20260505122755 42 135 0.0 0.0 0.00 0.00 0.00 60 1013.8
20260505122253 42 90 0.0 0.0 0.00 0.00 0.00 58 1013.8
20260505121754 42 135 0.0 0.0 0.00 0.00 0.00 57 1013.8
20260505121254 42 158 0.0 4.3 0.00 0.00 0.00 56 1013.8
20260505120755 42 135 0.0 4.3 0.00 0.00 0.00 56 1013.8
20260505120255 43 135 0.0 2.6 0.00 0.00 0.00 55 1013.8
20260505115755 43 135 0.0 0.0 0.00 0.00 0.00 54 1013.8
20260505115255 43 135 0.0 2.6 0.00 0.00 0.00 54 1013.8
20260505114755 43 113 0.0 4.3 0.00 0.00 0.00 54 1013.8
20260505114255 43 135 0.0 0.0 0.00 0.00 0.00 55 1013.8
20260505113754 43 135 0.0 0.0 0.00 0.00 0.00 54 1013.8
20260505113253 43 135 0.0 2.6 0.00 0.00 0.00 55 1013.8
20260505112755 44 135 0.0 0.0 0.00 0.00 0.00 56 1013.8
20260505112254 44 135 0.0 0.0 0.00 0.00 0.00 56 1013.8
20260505111755 44 135 0.0 0.0 0.00 0.00 0.00 56 1013.8
20260505111255 44 113 0.0 0.0 0.00 0.00 0.00 57 1013.8
20260505110754 44 113 0.0 0.0 0.00 0.00 0.00 58 1013.8
20260505110255 44 113 0.0 0.0 0.00 0.00 0.00 58 1013.8
20260505101754 44 45 0.0 2.6 0.00 0.00 0.00 67 1013.8
20260505101254 44 23 0.0 0.0 0.00 0.00 0.00 66 1013.8
20260505100755 44 23 0.0 0.0 0.00 0.00 0.00 66 1013.8
20260505100255 44 23 0.0 0.0 0.00 0.00 0.00 65 1013.8
20260505095755 44 23 0.0 0.0 0.00 0.00 0.00 65 1013.8
20260505095254 44 23 0.0 0.0 0.00 0.00 0.00 65 1013.8
20260505094753 44 23 0.0 0.0 0.00 0.00 0.00 65 1013.8
20260505094255 44 23 0.0 0.0 0.00 0.00 0.00 64 1012.8
20260505093754 44 23 0.0 0.0 0.00 0.00 0.00 64 1012.8
20260505093254 44 23 0.0 0.0 0.00 0.00 0.00 64 1012.8
20260505092754 44 0 0.0 0.0 0.00 0.00 0.00 64 1012.8
20260505092254 44 0 0.0 0.0 0.00 0.00 0.00 64 1012.8
20260505091754 44 0 0.0 0.0 0.00 0.00 0.00 64 1012.8
20260505091254 44 0 0.0 0.0 0.00 0.00 0.00 62 1013.8
20260505090754 44 0 0.0 0.0 0.00 0.00 0.00 63 1013.8
20260505090254 44 0 0.0 0.0 0.00 0.00 0.00 63 1013.8
20260505085754 44 0 0.0 0.0 0.00 0.00 0.00 63 1013.8
20260505085255 44 0 0.0 0.0 0.00 0.00 0.00 62 1013.8
20260505084754 45 0 0.0 0.0 0.00 0.00 0.00 61 1013.8
20260505084254 45 0 0.0 0.0 0.00 0.00 0.00 58 1013.8
20260505083755 45 0 0.0 0.0 0.00 0.00 0.00 57 1013.8
20260505083255 45 0 0.0 2.6 0.00 0.00 0.00 60 1013.8
20260505082755 45 0 0.0 0.0 0.00 0.00 0.00 66 1013.8
20260505082254 45 0 0.0 0.0 0.00 0.00 0.00 66 1013.8
20260505081754 45 0 0.0 0.0 0.00 0.00 0.00 68 1013.8
20260505081253 45 0 0.0 0.0 0.00 0.00 0.00 67 1013.8
20260505080754 46 0 0.0 0.0 0.00 0.00 0.00 68 1013.8
20260505080254 46 0 0.0 0.0 0.00 0.00 0.00 69 1013.8
20260505075754 46 0 0.0 0.0 0.00 0.00 0.00 68 1013.8
20260505075255 45 0 0.0 0.0 0.00 0.00 0.00 68 1013.8
20260505074755 45 0 0.0 0.0 0.00 0.00 0.00 69 1013.8
20260505074255 45 0 0.0 0.0 0.00 0.00 0.00 68 1013.8
20260505073753 45 0 0.0 2.6 0.00 0.00 0.00 69 1013.8
20260505073255 45 0 0.0 2.6 0.00 0.00 0.00 71 1013.8
20260505072755 45 0 0.0 0.0 0.00 0.00 0.00 71 1013.8
20260505072254 45 0 0.0 0.0 0.00 0.00 0.00 71 1013.8
20260505071755 45 0 0.0 2.6 0.00 0.00 0.00 72 1013.8
20260505071255 45 0 0.0 0.0 0.00 0.00 0.00 70 1013.8
20260505070753 46 0 0.0 0.0 0.00 0.00 0.00 71 1013.8
20260505070253 46 0 0.0 0.0 0.00 0.00 0.00 71 1013.8
20260505065755 46 0 0.0 0.0 0.00 0.00 0.00 69 1013.8
20260505065254 46 0 0.0 0.0 0.00 0.00 0.00 70 1013.8
20260505064754 46 0 0.0 0.0 0.00 0.00 0.00 71 1013.8
20260505064254 46 0 0.0 0.0 0.00 0.00 0.00 70 1013.8
20260505063755 46 0 0.0 0.0 0.00 0.00 0.00 69 1013.8
20260505063254 46 0 0.0 0.0 0.00 0.00 0.00 69 1013.8
20260505062754 46 0 0.0 2.6 0.00 0.00 0.00 68 1013.8
20260505062256 46 0 0.0 2.6 0.00 0.00 0.00 67 1013.8
20260505061755 46 0 0.0 2.6 0.00 0.00 0.00 64 1013.8
20260505061255 46 0 0.0 4.3 0.00 0.00 0.00 64 1014.8
20260505060754 46 0 0.0 4.3 0.00 0.00 0.00 63 1014.8
20260505060254 46 0 0.0 0.0 0.00 0.00 0.00 63 1014.8
20260505055753 46 0 0.0 4.3 0.00 0.00 0.00 60 1014.8
20260505055254 47 0 0.0 2.6 0.00 0.00 0.00 56 1014.8
20260505054754 47 0 0.0 4.3 0.00 0.00 0.00 55 1014.8
20260505054254 47 0 0.0 2.6 0.00 0.00 0.00 53 1014.8
20260505053755 47 0 0.0 2.6 0.00 0.00 0.00 52 1014.8
20260505053255 47 0 0.0 2.6 0.00 0.00 0.00 50 1014.8
20260505052755 48 0 0.0 5.2 0.00 0.00 0.00 49 1014.8
20260505052254 48 0 0.0 2.6 0.00 0.00 0.00 48 1014.8
20260505051753 48 0 0.0 2.6 0.00 0.00 0.00 47 1014.8
20260505051255 48 0 0.0 0.0 0.00 0.00 0.00 47 1014.8
20260505050754 48 0 0.0 0.0 0.00 0.00 0.00 46 1014.8
20260505050254 48 68 0.0 0.0 0.00 0.00 0.00 48 1014.8
20260505041754 48 0 0.0 0.0 0.00 0.00 0.00 50 1013.8
20260505041253 48 0 0.0 0.0 0.00 0.00 0.00 50 1013.8
20260505040754 48 0 0.0 0.0 0.00 0.00 0.00 50 1013.8
20260505040254 48 0 0.0 0.0 0.00 0.00 0.00 50 1013.8
20260505035754 48 23 0.0 2.6 0.00 0.00 0.00 49 1013.8
20260505035255 48 0 0.0 5.2 0.00 0.00 0.00 48 1013.8
20260505034755 48 0 2.6 2.6 0.00 0.00 0.00 48 1013.8
20260505034254 48 0 2.6 5.2 0.00 0.00 0.00 48 1013.8
20260505033755 48 68 0.0 4.3 0.00 0.00 0.00 48 1013.8
20260505033255 48 0 0.0 2.6 0.00 0.00 0.00 48 1013.8
20260505032755 48 45 0.0 2.6 0.00 0.00 0.00 47 1013.8
20260505032254 48 0 0.0 2.6 0.00 0.00 0.00 47 1013.8
20260505031754 48 0 0.0 5.2 0.00 0.00 0.00 48 1013.8
20260505031254 48 0 4.3 5.2 0.00 0.00 0.00 48 1013.8
20260505030754 48 23 4.3 5.2 0.00 0.00 0.00 48 1013.8
20260505030254 48 0 2.6 4.3 0.00 0.00 0.00 48 1013.8
20260505025753 48 0 1.7 5.2 0.00 0.00 0.00 49 1013.8
20260505025254 48 0 0.9 5.2 0.00 0.00 0.00 48 1013.8
20260505024754 48 0 0.9 4.3 0.00 0.00 0.00 48 1013.8
20260505024254 48 0 2.6 5.2 0.00 0.00 0.00 48 1013.8
20260505023754 49 0 2.6 5.2 0.00 0.00 0.00 48 1013.8
20260505023254 49 0 2.6 5.2 0.00 0.00 0.00 48 1013.8
20260505022754 49 0 2.6 5.2 0.00 0.00 0.00 49 1013.8
20260505022254 49 0 0.9 5.2 0.00 0.00 0.00 48 1013.8
20260505021754 49 23 0.0 2.6 0.00 0.00 0.00 48 1013.8
20260505021254 49 0 2.6 4.3 0.00 0.00 0.00 47 1013.8
20260505020755 48 0 1.7 5.2 0.00 0.00 0.00 47 1013.8
20260505020255 48 0 2.6 5.2 0.00 0.00 0.00 48 1013.8
20260505015755 49 0 4.3 5.2 0.00 0.00 0.00 47 1013.8
20260505015254 51 0 4.3 7.0 0.00 0.00 0.00 42 1013.8
20260505014754 51 0 0.0 0.0 0.00 0.00 0.00 40 1013.8
20260505014254 51 0 1.7 4.3 0.00 0.00 0.00 39 1013.8
20260505013755 50 23 0.0 0.0 0.00 0.00 0.00 40 1013.8
20260505013255 49 0 0.0 0.0 0.00 0.00 0.00 40 1013.8
20260505012755 50 0 4.3 5.2 0.00 0.00 0.00 40 1013.8
20260505012254 50 0 0.9 5.2 0.00 0.00 0.00 38 1013.8
20260505011754 53 0 4.3 5.2 0.00 0.00 0.00 37 1013.8
20260505011253 55 113 0.0 2.6 0.00 0.00 0.00 36 1012.8
20260505010754 56 45 0.9 5.2 0.00 0.00 0.00 35 1012.8
20260505010254 56 338 0.0 2.6 0.00 0.00 0.00 35 1012.8
20260505005754 56 0 0.0 0.0 0.00 0.00 0.00 35 1012.8
20260505005255 56 23 2.6 4.3 0.00 0.00 0.00 35 1012.8
20260505004755 57 0 2.6 2.6 0.00 0.00 0.00 35 1012.8
20260505004254 57 0 2.6 5.2 0.00 0.00 0.00 35 1011.8
20260505003755 58 0 5.2 7.8 0.00 0.00 0.00 35 1011.8
20260505003255 58 0 4.3 7.8 0.00 0.00 0.00 35 1011.8
20260505002755 58 0 4.3 5.2 0.00 0.00 0.00 35 1011.8
20260505002254 58 0 2.6 5.2 0.00 0.00 0.00 35 1011.8
20260505001755 59 0 5.2 7.0 0.00 0.00 0.00 35 1011.8
20260505001255 59 0 5.2 5.2 0.00 0.00 0.00 35 1011.8
20260505000754 60 0 6.1 7.0 0.00 0.00 0.00 35 1011.8
20260505000254 60 0 5.2 7.8 0.00 0.00 0.00 35 1011.8
20260504235753 61 0 4.3 7.0 0.00 0.00 0.00 35 1011.8
20260504235254 61 0 5.2 5.2 0.00 0.00 0.00 35 1011.8
20260504234754 61 0 5.2 7.8 0.00 0.00 0.00 34 1011.8
20260504234254 62 338 5.2 8.7 0.00 0.00 0.00 34 1011.8
20260504233754 63 338 4.3 7.8 0.00 0.00 0.00 34 1011.8
20260504233254 65 0 0.0 5.2 0.00 0.00 0.00 33 1011.8
20260504232754 65 135 0.0 0.0 0.00 0.00 0.00 33 1011.8
20260504232255 66 0 1.7 4.3 0.00 0.00 0.00 33 1011.8
20260504231754 66 45 0.0 0.0 0.00 0.00 0.00 33 1011.8
20260504231253 65 68 0.0 0.0 0.00 0.00 0.00 33 1011.8
20260504230754 65 68 0.0 0.0 0.00 0.00 0.00 33 1011.8
20260504230254 64 45 0.0 0.0 0.00 0.00 0.00 34 1011.8
20260504225754 64 113 0.0 0.0 0.00 0.00 0.00 34 1011.8
20260504225255 64 135 0.0 0.0 0.00 0.00 0.00 34 1011.8
20260504224754 64 225 0.0 0.0 0.00 0.00 0.00 34 1011.8
20260504224254 63 158 0.0 0.0 0.00 0.00 0.00 34 1011.8
20260504223755 63 225 0.0 0.0 0.00 0.00 0.00 34 1011.8
20260504223255 64 135 0.9 5.2 0.00 0.00 0.00 34 1011.8
20260504222755 64 158 0.0 0.0 0.00 0.00 0.00 34 1011.8
20260504222253 63 0 0.0 0.0 0.00 0.00 0.00 34 1011.8
20260504221755 62 0 0.0 0.0 0.00 0.00 0.00 34 1011.8
20260504221255 62 90 0.0 2.6 0.00 0.00 0.00 34 1011.8
20260504220754 63 45 0.0 0.0 0.00 0.00 0.00 34 1011.8
20260504220254 64 23 0.0 2.6 0.00 0.00 0.00 33 1011.8
20260504215753 65 23 0.0 0.0 0.00 0.00 0.00 33 1011.8
20260504215254 66 113 0.0 4.3 0.00 0.00 0.00 33 1011.8
20260504214754 66 158 0.0 0.0 0.00 0.00 0.00 33 1011.8
20260504214254 66 158 0.0 0.0 0.00 0.00 0.00 33 1011.8
20260504213754 66 0 0.0 2.6 0.00 0.00 0.00 33 1011.8
20260504213254 67 90 1.7 4.3 0.00 0.00 0.00 33 1011.8
20260504212754 67 180 0.0 5.2 0.00 0.00 0.00 33 1011.8
20260504212255 68 113 0.0 5.2 0.00 0.00 0.00 33 1011.8
20260504211755 68 180 0.0 2.6 0.00 0.00 0.00 33 1011.8
20260504211254 69 90 0.0 0.0 0.00 0.00 0.00 33 1010.8
20260504210755 69 90 0.0 0.0 0.00 0.00 0.00 33 1010.8
20260504210255 70 113 0.0 0.0 0.00 0.00 0.00 32 1010.8
20260504205755 71 0 0.0 0.0 0.00 0.00 0.00 32 1011.8
20260504205254 72 158 0.0 0.0 0.00 0.00 0.00 32 1011.8
20260504204753 72 158 0.0 0.0 0.00 0.00 0.00 32 1011.8
20260504204254 71 158 0.0 0.0 0.00 0.00 0.00 32 1011.8
20260504203755 71 158 0.0 0.0 0.00 0.00 0.00 32 1011.8
20260504203255 71 90 0.0 0.0 0.00 0.00 0.00 32 1011.8
20260504202755 70 90 0.0 2.6 0.00 0.00 0.00 32 1011.8
20260504202254 69 113 0.0 0.0 0.00 0.00 0.00 33 1011.8
20260504201753 68 180 0.0 0.0 0.00 0.00 0.00 33 1011.8
20260504201253 67 113 0.0 5.2 0.00 0.00 0.00 33 1011.8
20260504200754 67 0 0.0 2.6 0.00 0.00 0.00 33 1011.8
20260504200254 68 45 0.0 0.0 0.00 0.00 0.00 33 1011.8
20260504195754 69 23 0.0 2.6 0.00 0.00 0.00 33 1011.8
20260504195255 70 90 0.0 2.6 0.00 0.00 0.00 33 1011.8
20260504194756 70 180 0.0 0.0 0.00 0.00 0.00 33 1011.8
20260504194254 70 180 0.0 0.0 0.00 0.00 0.00 32 1011.8
20260504193755 71 180 0.0 0.0 0.00 0.00 0.00 32 1011.8
20260504193255 72 135 0.0 2.6 0.00 0.00 0.00 32 1011.8
20260504192755 72 0 0.0 0.0 0.00 0.00 0.00 32 1011.8
20260504192253 72 113 0.0 0.0 0.00 0.00 0.00 32 1011.8
20260504191753 73 68 0.0 2.6 0.00 0.00 0.00 32 1011.8
20260504191255 72 113 0.0 0.0 0.00 0.00 0.00 32 1011.8
20260504190754 73 113 0.0 0.0 0.00 0.00 0.00 32 1011.8
20260504190254 72 90 0.0 0.0 0.00 0.00 0.00 32 1011.8
20260504185754 71 158 0.0 2.6 0.00 0.00 0.00 32 1011.8
20260504185254 71 135 0.0 2.6 0.00 0.00 0.00 32 1011.8
20260504184754 70 158 0.0 0.0 0.00 0.00 0.00 32 1011.8
20260504184254 70 113 0.9 5.2 0.00 0.00 0.00 32 1012.8
20260504183755 71 135 0.0 2.6 0.00 0.00 0.00 32 1012.8
20260504183254 71 158 0.0 0.0 0.00 0.00 0.00 32 1012.8
20260504182754 72 113 0.0 2.6 0.00 0.00 0.00 32 1012.8
20260504182255 72 113 0.0 0.0 0.00 0.00 0.00 32 1012.8
20260504181755 71 113 0.0 0.0 0.00 0.00 0.00 32 1012.8
20260504181254 71 113 0.0 0.0 0.00 0.00 0.00 32 1012.8
20260504180753 71 135 0.0 0.0 0.00 0.00 0.00 32 1012.8
20260504180255 71 135 0.0 0.0 0.00 0.00 0.00 32 1012.8
20260504175754 70 180 0.0 0.0 0.00 0.00 0.00 32 1012.8
20260504175255 70 113 0.0 2.6 0.00 0.00 0.00 32 1012.8
20260504174755 71 135 0.0 2.6 0.00 0.00 0.00 32 1012.8
20260504174253 71 90 0.0 0.0 0.00 0.00 0.00 32 1012.8
20260504173754 71 90 0.0 0.0 0.00 0.00 0.00 32 1012.8
20260504173254 71 113 0.0 2.6 0.00 0.00 0.00 32 1012.8
20260504172754 71 113 0.0 2.6 0.00 0.00 0.00 32 1012.8
20260504172255 69 113 0.0 2.6 0.00 0.00 0.00 33 1012.8
20260504171754 68 135 0.0 0.0 0.00 0.00 0.00 33 1012.8
20260504171254 69 45 0.0 5.2 0.00 0.00 0.00 33 1013.8
20260504170755 70 158 0.0 2.6 0.00 0.00 0.00 33 1013.8
20260504170255 69 158 0.0 2.6 0.00 0.00 0.00 33 1013.8
20260504160254 63 180 1.7 4.3 0.00 0.00 0.00 34 1013.8
20260504150754 59 0 0.0 2.6 0.00 0.00 0.00 35 1013.8
20260504150253 59 0 0.0 5.2 0.00 0.00 0.00 35 1013.8